Temp
-8 -8 -7 -7 -7 -7 -7 -6 -6 -6 -6 -6 -6 -6 -6 -6 -6 -6 -6 -6 -6 -6 -6 -6 -6 -6 -7 -7 -8 -9 -10 -11 -11 -12 -13 -14 -14 -14 -14 -14 -14 -14 -14 -14 -14 -13 -13
-8 -8 -7 -7 -7 -7 -7 -6 -6 -6 -6 -6 -6 -6 -6 -6 -7 -6 -6 -6 -6 -6 -6 -6 -7 -7 -8 -9 -9 -10 -12 -12 -13 -13 -13 -14 -14 -15 -15 -16 -16 -16 -16 -16 -15 -15 -15
-8 -7 -7 -7 -7 -7 -7 -7 -6 -6 -6 -6 -7 -7 -7 -7 -6 -6 -6 -6 -6 -6 -6 -7 -8 -8 -9 -10 -11 -12 -13 -14 -14 -15 -15 -16 -17 -17 -18 -18 -18 -19 -18 -18 -17 -17 -17
-8 -8 -8 -7 -7 -7 -7 -6 -6 -6 -6 -7 -7 -7 -6 -6 -6 -6 -6 -6 -6 -7 -8 -8 -9 -11 -11 -13 -14 -14 -14 -15 -15 -16 -17 -18 -19 -19 -20 -20 -20 -20 -20 -19 -19 -19 -18
-8 -8 -7 -7 -7 -7 -7 -7 -7 -7 -7 -7 -6 -6 -6 -6 -6 -6 -6 -6 -7 -8 -9 -10 -11 -13 -14 -14 -14 -15 -16 -18 -18 -19 -20 -20 -21 -21 -22 -22 -21 -21 -21 -21 -20 -20 -19
-8 -7 -7 -7 -7 -7 -7 -7 -6 -6 -6 -7 -6 -6 -6 -6 -6 -7 -7 -8 -9 -10 -11 -12 -13 -14 -15 -16 -16 -17 -18 -19 -20 -21 -22 -22 -22 -23 -24 -24 -24 -23 -24 -23 -22 -22 -22
-8 -7 -7 -7 -7 -7 -6 -6 -6 -6 -6 -6 -7 -7 -7 -7 -7 -8 -8 -10 -11 -11 -14 -13 -15 -16 -16 -17 -17 -18 -20 -20 -21 -22 -23 -23 -24 -24 -24 -25 -24 -24 -24 -24 -23 -23 -23
-8 -8 -7 -7 -6 -6 -6 -6 -7 -7 -7 -7 -7 -7 -8 -8 -9 -9 -10 -11 -12 -13 -13 -15 -16 -16 -17 -18 -19 -20 -21 -22 -23 -23 -24 -24 -25 -25 -25 -25 -25 -25 -25 -25 -24 -24 -24
-8 -8 -7 -7 -7 -7 -7 -7 -7 -7 -7 -7 -8 -8 -9 -9 -10 -11 -12 -13 -14 -16 -17 -17 -17 -17 -19 -20 -20 -21 -22 -24 -24 -24 -25 -25 -26 -26 -26 -26 -26 -26 -26 -26 -26 -25 -25
-7 -7 -7 -7 -8 -8 -8 -8 -8 -8 -8 -9 -9 -10 -11 -11 -12 -12 -13 -15 -16 -17 -18 -18 -19 -20 -21 -22 -22 -23 -23 -24 -24 -25 -26 -27 -26 -27 -27 -27 -27 -27 -27 -27 -27 -27 -26
-7 -8 -7 -7 -8 -8 -8 -8 -9 -9 -9 -10 -10 -11 -11 -12 -13 -14 -15 -16 -17 -18 -20 -20 -21 -22 -22 -23 -24 -24 -25 -26 -26 -27 -27 -27 -28 -28 -28 -28 -28 -28 -28 -28 -27 -27 -27
-8 -8 -8 -8 -8 -9 -9 -10 -10 -10 -10 -10 -12 -12 -13 -13 -14 -15 -17 -17 -18 -19 -20 -22 -23 -23 -24 -24 -25 -26 -27 -27 -28 -28 -29 -29 -29 -29 -29 -29 -29 -28 -28 -28 -28 -28 -28
-8 -9 -9 -9 -10 -10 -10 -10 -9 -10 -11 -12 -13 -13 -14 -15 -16 -17 -18 -18 -20 -21 -22 -23 -23 -24 -25 -26 -27 -27 -28 -28 -29 -29 -30 -30 -30 -30 -30 -30 -30 -29 -29 -29 -29 -29 -29
-9 -9 -10 -10 -10 -10 -10 -10 -11 -12 -13 -13 -14 -15 -15 -16 -17 -18 -18 -19 -21 -22 -22 -23 -24 -26 -27 -28 -28 -29 -29 -30 -31 -31 -31 -31 -30 -31 -31 -31 -30 -31 -30 -31 -30 -31 -31
-9 -10 -10 -11 -10 -10 -11 -12 -12 -13 -13 -14 -15 -15 -16 -17 -18 -18 -19 -20 -21 -22 -23 -24 -26 -27 -28 -29 -30 -30 -31 -31 -32 -32 -32 -32 -31 -31 -31 -31 -31 -31 -31 -31 -31 -31 -32
-11 -11 -11 -11 -11 -12 -12 -13 -13 -14 -15 -15 -15 -16 -17 -17 -18 -19 -20 -22 -22 -23 -24 -26 -28 -29 -29 -30 -31 -32 -32 -33 -33 -33 -33 -33 -32 -32 -32 -32 -32 -32 -32 -32 -33 -32 -33
-11 -11 -11 -12 -12 -13 -13 -13 -14 -15 -15 -15 -15 -16 -16 -18 -19 -20 -21 -21 -22 -24 -26 -28 -29 -30 -31 -32 -33 -33 -33 -33 -34 -34 -34 -34 -33 -33 -33 -33 -33 -33 -34 -34 -33 -33 -33
-12 -11 -12 -13 -13 -14 -13 -14 -15 -15 -15 -15 -15 -16 -17 -18 -20 -21 -21 -22 -24 -26 -28 -30 -31 -32 -32 -33 -34 -34 -34 -34 -34 -34 -34 -34 -34 -34 -34 -34 -34 -33 -34 -34 -34 -34 -34
-12 -12 -13 -13 -14 -14 -14 -15 -15 -15 -15 -15 -16 -17 -18 -19 -20 -21 -22 -24 -26 -28 -30 -31 -32 -33 -33 -34 -34 -35 -34 -35 -35 -35 -35 -35 -34 -34 -34 -35 -35 -34 -34 -34 -34 -34 -34
-13 -13 -14 -14 -14 -14 -15 -15 -15 -16 -16 -16 -16 -17 -18 -20 -21 -22 -23 -25 -27 -29 -31 -32 -33 -34 -34 -35 -35 -35 -35 -35 -35 -35 -35 -35 -35 -35 -35 -35 -35 -35 -34 -34 -33 -33 -34
-13 -14 -14 -14 -15 -15 -15 -15 -16 -16 -16 -16 -17 -17 -19 -21 -22 -23 -25 -27 -29 -31 -32 -33 -34 -34 -35 -35 -35 -35 -36 -36 -36 -36 -36 -36 -35 -35 -36 -36 -36 -36 -36 -35 -35 -34 -35
-14 -14 -14 -15 -15 -15 -15 -16 -16 -16 -16 -17 -17 -18 -20 -22 -23 -25 -26 -28 -29 -31 -32 -33 -34 -34 -35 -35 -35 -35 -36 -36 -36 -36 -36 -36 -36 -36 -36 -37 -37 -37 -37 -36 -36 -36 -36
-14 -15 -15 -15 -15 -15 -16 -16 -16 -16 -17 -17 -18 -19 -21 -23 -23 -25 -26 -28 -30 -32 -33 -34 -34 -35 -35 -35 -35 -36 -36 -36 -36 -37 -37 -36 -36 -36 -37 -37 -37 -37 -36 -36 -37 -37 -37
-15 -15 -15 -16 -16 -16 -16 -16 -16 -17 -17 -17 -18 -20 -22 -23 -24 -25 -28 -30 -31 -32 -33 -34 -35 -35 -35 -35 -36 -36 -36 -36 -36 -37 -37 -37 -37 -37 -37 -37 -37 -37 -37 -37 -37 -37 -37
-15 -15 -16 -16 -16 -16 -16 -17 -17 -17 -17 -18 -19 -20 -23 -24 -25 -26 -29 -30 -32 -33 -34 -34 -35 -35 -36 -36 -37 -36 -37 -37 -37 -37 -37 -37 -37 -37 -38 -38 -38 -38 -38 -38 -38 -38 -38
-15 -16 -16 -16 -16 -17 -17 -17 -17 -17 -18 -19 -19 -21 -23 -25 -25 -27 -30 -31 -32 -33 -34 -35 -36 -37 -37 -37 -37 -36 -37 -37 -38 -38 -38 -38 -38 -38 -38 -38 -38 -38 -38 -38 -38 -38 -37
-15 -16 -16 -16 -17 -17 -17 -17 -18 -18 -18 -19 -20 -21 -23 -24 -25 -27 -29 -31 -32 -34 -35 -36 -37 -36 -37 -37 -36 -36 -37 -37 -36 -37 -37 -37 -37 -37 -38 -38 -38 -38 -38 -38 -38 -37 -38
-16 -16 -16 -17 -17 -17 -17 -18 -18 -18 -18 -19 -20 -21 -22 -24 -25 -27 -28 -30 -32 -33 -35 -36 -36 -37 -37 -37 -37 -37 -38 -38 -38 -38 -38 -38 -37 -37 -38 -38 -37 -38 -38 -38 -38 -38 -37
-16 -16 -17 -17 -17 -17 -18 -18 -18 -18 -19 -19 -21 -21 -22 -25 -25 -26 -28 -30 -32 -33 -34 -36 -36 -37 -37 -37 -38 -38 -38 -38 -38 -38 -38 -38 -39 -39 -39 -39 -39 -38 -38 -38 -38 -38 -38
Height
5845 5842 5838 5836 5833 5829 5826 5822 5818 5813 5809 5804 5798 5792 5785 5779 5772 5766 5758 5750 5742 5733 5723 5713 5703 5692 5682 5673 5661 5652 5646 5639 5634 5629 5625 5618 5613 5608 5606 5603 5599 5598 5602 5601 5604 5602 5602
5842 5839 5837 5833 5830 5826 5822 5817 5812 5807 5802 5796 5790 5785 5779 5772 5765 5756 5747 5738 5728 5717 5706 5695 5684 5674 5664 5654 5645 5634 5625 5618 5613 5608 5603 5598 5593 5588 5584 5582 5577 5577 5579 5582 5583 5583 5580
5840 5837 5834 5831 5827 5822 5817 5812 5807 5802 5796 5790 5784 5778 5771 5763 5754 5745 5735 5726 5715 5703 5690 5676 5664 5653 5644 5633 5624 5616 5606 5598 5593 5588 5582 5578 5574 5568 5564 5561 5559 5558 5558 5560 5566 5567 5565
5838 5834 5830 5826 5822 5818 5813 5808 5802 5796 5790 5783 5776 5769 5762 5753 5743 5733 5722 5711 5697 5685 5670 5657 5642 5629 5621 5612 5606 5597 5588 5578 5573 5567 5561 5557 5554 5550 5548 5545 5543 5541 5537 5542 5553 5547 5549
5834 5830 5826 5822 5817 5813 5808 5802 5796 5790 5783 5776 5769 5761 5753 5743 5732 5719 5708 5695 5681 5666 5652 5638 5625 5610 5601 5595 5588 5578 5570 5560 5554 5550 5544 5540 5536 5532 5530 5525 5524 5524 5522 5523 5534 5529 5529
5830 5826 5822 5817 5813 5808 5802 5796 5789 5782 5775 5769 5760 5751 5741 5730 5718 5705 5690 5677 5662 5648 5633 5619 5607 5592 5584 5575 5567 5558 5551 5545 5537 5534 5527 5522 5518 5514 5511 5506 5503 5504 5500 5504 5511 5517 5509
5827 5822 5818 5813 5809 5803 5796 5790 5783 5776 5768 5759 5749 5738 5727 5715 5702 5689 5676 5659 5646 5632 5611 5603 5587 5577 5565 5555 5549 5542 5534 5527 5523 5519 5513 5506 5502 5494 5493 5489 5486 5485 5485 5485 5493 5495 5486
5822 5818 5814 5810 5803 5797 5790 5784 5776 5767 5758 5748 5737 5726 5713 5699 5684 5668 5654 5637 5622 5607 5595 5580 5569 5557 5548 5538 5532 5523 5518 5511 5505 5500 5494 5488 5482 5478 5474 5468 5467 5466 5465 5468 5472 5474 5468
5819 5815 5810 5805 5798 5792 5784 5776 5767 5757 5747 5737 5725 5712 5697 5682 5665 5651 5633 5618 5601 5585 5577 5560 5553 5543 5530 5523 5514 5506 5500 5493 5488 5481 5475 5469 5460 5458 5455 5450 5450 5448 5447 5448 5450 5453 5453
5816 5811 5805 5799 5793 5786 5777 5767 5757 5746 5736 5724 5711 5697 5682 5665 5650 5632 5615 5599 5585 5568 5556 5545 5534 5525 5512 5501 5494 5486 5479 5475 5466 5460 5455 5448 5442 5440 5436 5432 5432 5433 5430 5430 5432 5432 5438
5811 5806 5799 5792 5784 5776 5767 5757 5747 5736 5725 5711 5697 5680 5663 5644 5633 5616 5599 5583 5569 5557 5539 5526 5516 5503 5497 5488 5475 5469 5461 5452 5448 5441 5437 5431 5427 5423 5418 5417 5416 5416 5415 5415 5416 5415 5415
5808 5801 5793 5785 5776 5767 5758 5748 5737 5724 5710 5695 5680 5665 5650 5634 5616 5600 5582 5567 5554 5540 5527 5514 5500 5489 5479 5471 5461 5452 5446 5441 5433 5427 5420 5416 5413 5410 5406 5403 5401 5402 5400 5400 5400 5400 5397
5801 5794 5787 5777 5767 5758 5748 5737 5725 5710 5696 5681 5666 5650 5633 5618 5605 5586 5568 5551 5538 5524 5509 5497 5485 5473 5463 5454 5445 5438 5432 5427 5423 5419 5412 5404 5400 5396 5394 5393 5388 5388 5388 5387 5387 5387 5388
5794 5787 5779 5769 5760 5749 5739 5726 5712 5698 5684 5669 5653 5636 5619 5602 5586 5569 5554 5538 5523 5508 5496 5482 5469 5456 5447 5439 5433 5426 5418 5413 5408 5403 5399 5395 5391 5387 5384 5382 5381 5378 5377 5376 5376 5377 5377
5788 5780 5771 5761 5751 5741 5729 5716 5702 5688 5675 5658 5643 5626 5606 5590 5571 5553 5540 5524 5508 5492 5479 5468 5455 5445 5436 5428 5420 5413 5408 5403 5397 5394 5391 5385 5381 5378 5374 5372 5372 5368 5366 5364 5364 5365 5365
5782 5774 5763 5754 5743 5732 5719 5707 5693 5678 5664 5649 5634 5614 5594 5577 5559 5541 5523 5511 5495 5479 5465 5452 5442 5435 5426 5418 5412 5405 5400 5396 5390 5386 5382 5379 5375 5371 5368 5364 5362 5359 5358 5356 5355 5356 5356
5776 5766 5756 5746 5735 5723 5711 5698 5685 5671 5656 5640 5622 5604 5584 5564 5546 5530 5516 5499 5483 5468 5455 5444 5433 5425 5418 5411 5405 5399 5395 5391 5385 5381 5378 5374 5371 5367 5364 5359 5357 5355 5350 5348 5348 5349 5349
5769 5759 5751 5739 5728 5714 5704 5690 5678 5665 5648 5630 5613 5594 5574 5555 5539 5522 5504 5487 5473 5457 5446 5436 5426 5418 5412 5405 5400 5396 5391 5386 5382 5378 5374 5370 5365 5362 5359 5354 5351 5348 5345 5343 5342 5343 5342
5762 5753 5744 5733 5720 5709 5695 5683 5671 5655 5639 5622 5603 5584 5566 5549 5530 5509 5493 5479 5465 5451 5440 5429 5421 5414 5408 5402 5398 5392 5388 5384 5379 5375 5370 5367 5363 5359 5355 5352 5348 5345 5341 5339 5338 5337 5337
5757 5748 5737 5728 5714 5701 5689 5677 5664 5648 5630 5615 5595 5577 5558 5538 5519 5503 5488 5473 5458 5445 5434 5425 5418 5411 5405 5400 5395 5390 5386 5382 5378 5374 5369 5365 5361 5358 5355 5350 5346 5342 5339 5335 5334 5332 5332
5751 5742 5732 5721 5706 5695 5685 5673 5657 5642 5625 5608 5590 5570 5551 5531 5514 5498 5482 5466 5452 5441 5431 5423 5416 5410 5404 5398 5394 5390 5386 5381 5377 5373 5368 5365 5361 5357 5353 5349 5346 5342 5339 5335 5333 5330 5330
5746 5739 5727 5714 5702 5693 5681 5667 5653 5635 5620 5606 5586 5566 5546 5528 5510 5492 5477 5463 5450 5439 5432 5423 5416 5409 5404 5399 5394 5390 5385 5382 5377 5373 5369 5365 5361 5357 5354 5350 5347 5344 5341 5336 5333 5331 5330
5742 5733 5720 5709 5697 5689 5677 5663 5648 5632 5617 5600 5580 5563 5542 5527 5508 5491 5475 5460 5449 5439 5430 5423 5416 5410 5404 5399 5394 5390 5385 5381 5377 5374 5370 5366 5363 5360 5356 5353 5349 5349 5344 5340 5337 5335 5333
5737 5728 5716 5705 5695 5686 5674 5660 5645 5629 5615 5596 5579 5560 5541 5523 5504 5487 5471 5460 5449 5439 5432 5424 5417 5412 5407 5401 5395 5391 5387 5382 5378 5375 5372 5368 5364 5362 5358 5355 5352 5348 5344 5342 5340 5337 5335
5732 5723 5713 5702 5694 5685 5671 5658 5643 5629 5613 5595 5577 5558 5539 5516 5500 5484 5470 5460 5450 5441 5434 5426 5418 5412 5405 5401 5397 5393 5389 5385 5380 5376 5373 5368 5366 5362 5359 5356 5354 5351 5348 5345 5342 5340 5337
5728 5718 5708 5699 5693 5682 5669 5656 5642 5628 5613 5596 5576 5558 5536 5518 5503 5486 5474 5461 5453 5443 5436 5427 5420 5414 5409 5405 5402 5396 5389 5385 5381 5376 5372 5369 5366 5364 5360 5357 5354 5351 5347 5344 5341 5339 5337
5724 5715 5706 5700 5693 5680 5667 5654 5641 5629 5614 5596 5577 5559 5538 5522 5507 5492 5479 5467 5455 5445 5437 5430 5423 5417 5412 5408 5402 5396 5390 5386 5380 5378 5374 5372 5369 5363 5360 5357 5354 5350 5347 5343 5342 5342 5335
5721 5713 5705 5699 5692 5679 5666 5654 5642 5629 5614 5598 5580 5560 5543 5524 5512 5497 5483 5472 5461 5450 5441 5432 5428 5419 5413 5407 5401 5396 5390 5385 5381 5375 5371 5366 5361 5358 5356 5351 5349 5347 5345 5342 5339 5335 5332
5718 5712 5705 5698 5691 5679 5665 5654 5645 5630 5615 5597 5583 5561 5544 5532 5517 5502 5488 5476 5464 5452 5443 5435 5426 5419 5413 5407 5402 5397 5391 5387 5382 5377 5371 5366 5360 5355 5353 5350 5343 5339 5336 5333 5331 5328 5326
Wind_Speed
15 18 21 22 23 24 27 30 33 36 39 43 46 49 50 50 53 53 56 59 63 67 71 74 77 79 77 77 81 79 80 79 78 75 69 66 66 65 65 64 59 59 55 55 55 60 63
17 21 23 25 27 29 31 34 37 40 43 45 48 50 50 51 54 58 63 66 69 73 75 76 77 78 80 84 82 81 78 77 78 76 74 72 67 62 58 54 55 55 53 53 56 60 66
20 23 26 28 30 32 34 36 39 42 44 45 45 46 49 55 60 65 66 69 73 75 77 80 82 85 87 86 84 79 77 75 73 72 66 59 51 51 50 49 49 50 52 52 52 57 63
23 25 27 30 32 35 38 41 42 42 44 43 46 51 56 61 64 66 70 74 75 77 79 85 87 87 87 82 79 77 77 75 71 62 54 51 52 50 47 49 49 51 54 52 47 54 57
26 29 32 34 37 38 42 41 41 45 47 50 53 56 59 63 66 69 72 75 78 82 87 89 90 86 84 81 79 78 71 58 57 52 48 55 53 51 49 50 53 52 53 52 47 52 55
29 32 34 36 36 41 43 44 45 46 48 52 55 59 66 67 69 72 76 80 84 89 91 91 88 87 83 79 80 67 60 57 54 52 52 56 54 50 48 48 54 53 53 50 46 47 56
31 33 35 38 39 40 44 45 45 49 51 54 62 67 67 72 77 78 80 84 90 91 89 89 85 82 82 82 73 64 61 61 58 53 54 55 53 55 53 53 56 55 54 53 47 48 59
32 33 33 35 39 43 44 47 49 52 53 60 67 70 73 77 81 84 87 90 93 92 90 89 87 85 83 70 67 64 63 61 57 57 55 55 54 53 52 54 53 53 53 51 49 52 59
29 32 36 41 43 45 44 47 51 55 61 67 67 73 76 80 85 88 90 91 90 88 85 86 85 78 68 69 67 67 62 59 57 56 54 51 52 48 47 49 47 49 50 51 51 53 56
31 34 38 41 45 47 48 52 56 57 63 67 71 76 81 85 84 87 91 90 87 86 84 83 72 68 70 67 68 64 64 61 60 54 48 46 47 44 44 45 44 43 48 50 50 52 51
33 37 43 44 45 51 53 56 58 60 69 71 76 79 81 84 89 90 87 85 84 83 83 66 67 70 67 64 65 64 60 56 50 46 42 43 41 40 40 40 39 40 41 43 43 45 48
36 40 45 46 48 52 52 57 60 65 71 76 77 81 84 86 86 85 85 86 84 80 65 64 66 67 65 62 58 54 48 43 41 39 39 37 35 34 35 35 37 36 38 38 39 41 47
38 44 48 49 50 52 57 62 65 70 74 76 79 82 82 82 82 85 84 83 78 71 70 68 64 61 58 55 50 46 42 37 34 30 29 32 31 31 31 30 32 30 32 32 33 35 34
44 48 50 51 53 56 59 63 68 72 75 76 77 78 81 84 84 83 82 78 71 69 67 63 60 57 51 48 43 40 38 35 31 30 27 26 27 26 26 26 25 26 27 27 27 26 24
46 49 48 53 56 57 61 67 71 72 74 73 75 78 81 82 83 82 79 74 71 69 67 62 56 51 47 43 40 39 36 32 28 25 23 23 23 24 24 24 23 23 24 25 21 23 27
46 49 51 55 58 60 62 66 70 70 69 72 74 78 81 82 82 79 77 70 67 65 62 57 52 48 43 40 36 33 30 25 24 22 21 20 21 21 21 23 22 21 19 17 15 17 22
46 51 52 56 59 61 65 66 67 67 69 72 76 80 81 81 81 76 69 67 65 62 58 52 47 43 39 36 32 28 25 22 21 18 18 17 17 18 18 17 16 13 15 19 16 15 18
48 51 53 58 59 61 65 64 64 65 69 74 77 80 81 81 74 69 66 64 60 56 52 47 42 37 33 30 27 23 22 20 18 16 16 17 17 18 18 18 15 13 13 12 13 12 16
47 50 56 56 59 62 61 61 62 66 70 74 77 81 81 74 69 69 65 59 54 51 46 41 36 33 30 26 24 22 21 20 19 19 20 20 19 19 17 17 15 11 10 8 9 11 16
50 54 52 60 58 58 58 59 63 67 70 75 79 79 78 74 70 66 61 56 50 46 41 37 33 30 26 24 23 22 21 20 19 20 20 20 18 16 14 14 16 17 16 10 7 7 16
52 52 54 57 55 55 57 60 64 67 72 76 77 80 77 73 69 64 58 51 46 42 38 35 31 27 25 24 22 19 18 19 18 17 19 19 18 16 16 15 15 19 19 16 9 5 6
50 55 56 53 53 54 57 61 64 69 72 74 78 79 76 71 67 62 57 51 48 43 37 33 30 27 24 22 20 19 17 16 18 19 18 17 19 19 16 14 14 18 19 20 19 11 5
48 55 50 49 49 52 55 58 64 69 72 76 79 78 74 70 67 64 61 55 49 43 38 33 29 27 25 22 20 20 20 21 19 18 16 17 18 19 18 16 13 8 13 17 19 20 17
50 50 47 45 48 51 54 59 65 69 72 76 77 78 73 72 70 68 61 54 49 45 39 33 31 28 26 24 24 22 20 20 21 20 20 19 19 18 18 16 15 17 18 17 16 17 18
46 45 43 44 46 50 54 60 66 69 72 74 77 77 73 74 72 68 61 55 50 45 40 35 33 32 31 28 24 20 18 19 19 20 20 23 22 19 16 15 15 11 10 12 13 12 12
43 39 39 42 45 48 54 59 64 68 71 73 77 76 74 74 72 69 60 55 50 45 39 35 32 29 26 22 18 16 19 20 21 23 23 23 21 20 16 16 15 14 14 14 16 13 9
38 35 37 40 44 48 53 58 63 67 70 73 76 75 76 73 72 68 63 58 53 44 38 34 32 29 25 23 23 25 25 24 24 21 20 16 16 18 18 16 13 16 15 14 16 12 14
33 34 34 38 42 47 52 58 62 66 70 73 76 76 76 74 71 70 66 60 57 49 40 37 35 33 28 27 30 30 30 31 30 30 31 29 29 26 27 27 23 22 20 19 18 19 15
30 30 32 36 41 46 52 56 61 65 69 74 74 78 76 72 72 70 67 63 60 56 49 43 41 38 34 32 32 29 29 27 28 27 28 29 29 30 28 27 30 31 30 28 26 24 23
Wind_Direction
357 353 351 349 344 338 335 334 332 328 326 323 321 320 319 318 317 317 314 314 313 310 308 306 303 300 297 296 298 299 299 299 298 297 296 294 293 293 292 289 284 281 276 270 268 263 258
350 348 344 339 336 333 332 331 329 325 323 322 322 321 319 317 315 315 315 314 311 309 304 302 300 299 297 298 298 300 301 301 300 300 299 298 298 295 289 283 277 275 266 263 259 256 251
340 340 339 335 333 330 327 324 324 323 324 323 321 319 318 319 319 317 316 314 309 306 303 300 298 298 299 299 300 302 302 302 302 304 304 301 293 288 284 279 273 266 264 261 257 254 255
329 332 335 334 330 328 326 325 323 323 322 320 321 322 323 320 317 315 312 310 306 304 302 301 301 301 300 301 303 305 305 307 308 307 302 297 294 291 285 279 275 272 269 268 262 258 255
332 330 330 329 329 327 325 326 327 325 326 325 325 324 322 320 318 311 308 306 304 301 302 303 302 304 304 306 306 307 311 309 306 305 295 297 296 294 288 282 279 276 272 267 262 258 254
328 324 327 329 327 327 328 329 328 326 326 327 326 324 319 315 312 310 307 303 302 303 304 304 303 305 308 312 312 314 311 308 306 303 294 296 295 292 285 273 277 279 275 272 269 258 254
332 332 333 333 332 330 331 327 324 324 324 325 322 319 316 316 313 312 309 306 307 306 307 306 307 307 311 314 312 311 308 306 304 298 294 292 290 286 284 278 275 275 273 270 268 257 257
333 336 340 337 335 330 327 324 327 326 323 320 320 320 317 316 313 310 308 309 307 306 306 308 309 312 313 312 309 307 306 303 301 298 295 293 287 285 280 276 274 271 268 266 262 256 253
347 341 339 333 332 330 330 329 328 325 324 320 316 320 318 315 313 312 310 308 309 312 314 313 313 313 312 309 307 306 304 302 299 295 293 289 285 285 281 277 273 270 266 262 260 256 257
342 336 331 330 333 332 330 328 324 321 321 322 319 319 319 316 314 311 311 313 314 315 316 316 315 313 311 310 307 306 304 302 300 298 296 289 291 287 280 278 273 268 264 263 261 259 255
332 334 334 331 329 330 329 324 320 319 322 323 322 321 318 315 314 314 315 315 317 317 317 315 314 312 310 307 307 306 304 303 301 300 296 293 290 288 284 279 275 270 267 264 263 262 256
332 334 333 330 329 326 324 327 328 326 326 325 322 320 318 319 318 318 318 319 319 319 319 313 313 312 309 307 305 305 304 303 301 300 297 294 291 286 281 278 275 273 270 269 264 261 259
335 333 331 329 326 327 327 327 328 329 327 324 322 322 323 322 321 320 322 321 322 322 319 316 313 309 309 309 309 309 308 306 303 300 295 294 293 288 285 284 283 278 274 273 270 264 267
333 331 330 331 328 327 327 327 329 328 326 326 328 327 325 324 325 325 324 324 323 321 319 317 315 314 315 315 314 314 316 316 313 308 303 297 292 290 289 286 279 279 277 273 265 256 239
325 326 329 330 330 327 327 329 329 329 329 332 329 329 329 329 328 328 327 327 327 323 320 319 318 320 320 320 320 321 322 321 316 314 312 308 302 300 298 298 298 292 287 280 269 248 238
324 328 327 329 329 329 330 330 331 333 334 333 334 334 332 331 330 331 333 329 325 324 323 324 325 325 325 326 327 326 328 326 324 323 320 316 310 308 308 307 312 305 294 283 272 248 233
325 326 327 327 329 331 330 333 336 338 336 338 339 336 335 335 336 335 332 331 328 326 327 329 330 330 330 331 332 334 333 332 333 328 320 319 317 321 318 316 309 292 286 287 281 253 236
327 327 326 329 331 331 334 338 340 339 343 342 341 338 340 339 338 337 338 336 333 332 332 333 334 335 335 338 339 340 337 338 333 334 345 345 342 337 329 329 329 325 322 300 280 254 240
327 329 330 331 332 335 340 342 341 345 346 345 344 344 344 343 342 345 343 341 338 336 337 339 340 341 345 346 344 344 341 346 349 351 350 353 351 345 344 346 343 333 321 309 274 263 245
325 329 334 332 335 341 343 343 346 348 349 348 350 347 346 349 350 349 347 346 343 342 344 346 347 351 352 351 351 351 350 349 355 353 352 357 358 359 359 2 4 0 359 345 303 272 234
328 334 333 334 341 344 345 348 350 351 352 352 351 351 351 353 354 353 355 353 352 352 354 355 358 358 357 356 358 356 357 357 356 355 6 6 9 10 10 11 15 15 13 17 7 356 235
333 331 332 339 344 346 348 350 352 354 355 354 355 354 356 357 357 0 1 2 1 0 359 360 2 4 4 0 1 4 6 9 12 18 11 13 19 20 17 17 18 23 25 30 29 33 30
330 331 338 343 348 349 351 353 355 358 357 357 359 358 0 360 3 4 6 8 6 4 5 6 9 12 10 10 13 16 14 15 24 23 17 20 25 26 23 22 18 353 16 32 39 43 40
332 333 341 347 350 351 353 356 359 1 360 2 1 2 2 4 8 8 11 11 11 8 8 8 13 15 16 18 19 14 15 19 24 23 27 27 25 19 17 18 11 16 18 18 20 28 30
333 338 344 350 352 353 356 360 2 3 3 4 4 5 5 10 9 11 14 14 13 10 9 9 12 13 16 19 18 14 20 18 21 19 19 22 21 16 12 7 2 5 1 359 4 6 14
334 341 349 352 353 356 0 3 4 4 6 7 8 7 10 14 12 15 17 17 14 11 9 13 15 15 21 19 14 9 15 24 29 17 13 12 12 16 8 5 2 0 352 350 348 339 342
335 344 354 355 355 359 3 6 6 7 7 10 10 11 13 15 14 16 18 18 17 13 13 15 14 13 14 9 8 14 19 12 8 7 4 358 358 360 356 356 345 350 348 343 338 325 321
340 350 354 357 357 2 7 8 8 9 10 12 13 14 15 16 15 17 18 19 19 20 16 12 9 13 11 9 11 11 8 3 0 359 352 351 350 346 345 338 330 331 331 319 318 314 315
345 351 357 359 0 5 9 9 9 11 12 15 14 16 16 18 17 18 19 20 21 21 19 16 12 11 9 11 9 4 3 6 6 6 8 6 1 355 351 344 331 326 322 314 308 302 295